Zurück zum Katalog

DMSP 5D-2 F13 DEB

AktivSSO
NORAD 40416·DEBRIS·🇺🇸 United States

Gestartet Mar 24, 1995 von Vandenberg Space Force Base

Loading…

Nächste Überflüge (nächste 24 Stunden)

TLE

AktuellSource: Space-Track

Epoche: Sep 13, 2026, 12:22 UTC

1 40416U 95015AD  26256.51564161  .00001231  00000-0  50990-3 0  9998
2 40416  98.7360 282.7619 0005203 177.7287 182.3918 14.28427137598366

Verfolge DMSP 5D-2 F13 DEB in Echtzeit mit AllMySat

Download on the App Store